Terminal Aerodrome Forecast
Issued by NWS Wakefield, VA

Home | Current Version | Previous Version | Text Only | Print | Product List | Glossary On
Versions: 1 2 3 4 5 6 7 8 9 10 11 12 13 14 15 16 17 18 19 20 21 22 23 24 25 26 27 28
000
FTUS41 KAKQ 250200 AAA
TAFRIC
TAF AMD
KRIC 250228Z 2502/2524 35003KT 5SM BR OVC050
      TEMPO 2503/2507 2SM BR BKN005
     FM250700 01003KT 3SM BR SCT015 BKN050
     FM251400 03008KT P6SM SCT050 BKN250
     FM252000 08005KT P6SM BKN250=

USA.gov is the U.S. government's official web portal to all federal, state and local government web resources and services.